User: anonymous   Login
Location: ?ejeti?ky
(50.4060°N, 14.9016°E)
Time: 16:18:08
(UTC+00:00)
Language:

Cosmos 2322 Rocket - Orbit

View from above orbital plane
View from above orbital plane
View from above satellite
View from above satellite

Ground track
Ground track

The orbit data is extracted from the following two-line orbital elements,

1 23705U 95058B   20225.49984371  .00000194  00000-0  12455-3 0  9994
2 23705  71.0226 131.3623 0013274 333.1689  26.8745 14.15134301280203
Epoch (UTC): 12 August 2020 11:59:46
Eccentricity: 0.0013274
inclination: 71.0226°
perigee height: 832 km
apogee height: 851 km
right ascension of ascending node: 131.3623°
argument of perigee: 333.1689°
revolutions per day: 14.15134301
mean anomaly at epoch: 26.8745°
orbit number at epoch: 28020

The dashed part of the orbit path shows where the satellite is in the earth's shadow,  

DLR